Date String (YYYY-MM-DD hh:mm:ss) UTC,Instrument flags,absolute air pressure of the measurement (hPa),sample flow rate (lpm),inlet stack bypass flow (lpm),air temperature of the measurement (°C),ambient temperature measured by the external sensor (°C),aerosol sample conditioner tube jacket temperature (°C),OPC LED temperature (°C),internal box temperature (°C),relative humidity of the measurement (%),span deviation,mass concentration of particles derived from Lorenz-Mie calculation of OPC scattering (μg/m³),mass concentration of particles derived from Lorenz-Mie calculation of OPC scattering (μg/m³),mass concentration of particles derived from Lorenz-Mie calculation of OPC scattering (μg/m³)
DateTimeUTC,F1_M11,P_M11,Q1_M11,Q2_M11,T1_M11,T2_M11,T3_M11,T4_M11,T5_M11,U1_M11,ZSPAN_M11,X0_M11,X2_M11,X1_M11
2024-05-31 12:00:00,SystemResetWarning,0832.9,5.00,000.00,030.1,029.3,000.0,038.6,031.9,022.6,0000.0,0008.53,0003.22,0002.13
2024-05-31 12:01:00,SystemResetWarning,0832.9,4.99,000.00,030.1,029.3,000.0,038.7,031.9,022.6,0000.0,0008.80,0003.28,0002.14
2024-05-31 12:02:00,SystemResetWarning,0833.2,4.99,000.00,030.1,029.3,000.0,038.6,031.9,022.6,0000.0,0008.68,0003.23,0002.14
2024-05-31 12:03:00,SystemResetWarning,0833.2,5.00,000.00,030.1,029.3,000.0,038.6,031.9,022.7,0000.0,0008.49,0003.22,0002.15
2024-05-31 12:04:00,SystemResetWarning,0833.2,5.01,000.00,030.1,029.2,000.0,038.6,031.9,022.8,0000.0,0008.39,0003.21,0002.16
2024-05-31 12:05:00,SystemResetWarning,0833.4,5.00,000.00,030.1,029.2,000.0,038.6,031.9,022.7,0000.0,0008.33,0003.18,0002.15
2024-05-31 12:06:00,SystemResetWarning,0833.2,4.99,000.00,030.1,029.3,000.0,038.6,031.9,022.8,0000.0,0008.30,0003.17,0002.17
2024-05-31 12:07:00,SystemResetWarning,0833.0,4.99,000.00,030.1,029.3,000.0,038.6,031.9,022.7,0000.0,0008.39,0003.18,0002.17
2024-05-31 12:08:00,SystemResetWarning,0833.0,5.00,000.00,030.1,029.3,000.0,038.6,031.9,022.7,0000.0,0008.54,0003.20,0002.17
2024-05-31 12:09:00,SystemResetWarning,0832.9,5.00,000.00,030.1,029.3,000.0,038.6,031.9,022.8,0000.0,0008.43,0003.21,0002.19
2024-05-31 12:10:00,SystemResetWarning,0832.9,5.01,000.00,030.1,029.3,000.0,038.6,031.9,022.9,0000.0,0007.55,0003.19,0002.19
2024-05-31 12:11:00,SystemResetWarning,0833.0,5.01,000.00,030.1,029.3,000.0,038.6,031.9,022.9,0000.0,0007.06,0003.19,0002.20
2024-05-31 12:12:00,SystemResetWarning,0833.0,5.00,000.00,030.1,029.3,000.0,038.6,031.9,022.8,0000.0,0006.45,0003.15,0002.19
2024-05-31 12:13:00,SystemResetWarning,0833.0,4.99,000.00,030.1,029.3,000.0,038.6,031.9,022.8,0000.0,0006.34,0003.16,0002.19
2024-05-31 12:14:00,SystemResetWarning,0832.9,4.99,000.00,030.1,029.3,000.0,038.6,031.9,022.7,0000.0,0006.28,0003.16,0002.19
2024-05-31 12:15:00,SystemResetWarning,0833.0,5.00,000.00,030.1,029.2,000.0,038.6,031.9,022.6,0000.0,0007.22,0003.17,0002.22
2024-05-31 12:16:00,SystemResetWarning,0832.9,5.00,000.00,030.1,029.2,000.0,038.6,031.9,022.6,0000.0,0007.34,0003.21,0002.24
2024-05-31 12:17:00,SystemResetWarning,0833.1,5.01,000.00,030.1,029.2,000.0,038.6,031.8,022.7,0000.0,0007.41,0003.24,0002.26
2024-05-31 12:18:00,SystemResetWarning,0833.1,4.99,000.00,030.1,029.2,000.0,038.6,031.8,022.9,0000.0,0007.26,0003.24,0002.27
2024-05-31 12:19:00,SystemResetWarning,0833.2,5.00,000.00,030.1,029.2,000.0,038.6,031.8,023.0,0000.0,0007.00,0003.21,0002.28
2024-05-31 12:20:00,SystemResetWarning,0833.2,5.00,000.00,030.1,029.2,000.0,038.6,031.8,022.9,0000.0,0007.07,0003.20,0002.29
2024-05-31 12:21:00,SystemResetWarning,0833.4,5.01,000.00,030.1,029.2,000.0,038.6,031.8,022.9,0000.0,0007.25,0003.21,0002.31
2024-05-31 12:22:00,SystemResetWarning,0833.4,5.00,000.00,030.1,029.2,000.0,038.6,031.8,022.9,0000.0,0007.63,0003.21,0002.33
2024-05-31 12:23:00,SystemResetWarning,0833.2,5.01,000.00,030.1,029.2,000.0,038.6,031.8,022.9,0000.0,0007.78,0003.22,0002.36
2024-05-31 12:24:00,SystemResetWarning,0833.2,5.00,000.00,030.1,029.2,000.0,038.6,031.8,023.0,0000.0,0008.20,0003.24,0002.41
2024-05-31 12:25:00,SystemResetWarning,0833.0,4.99,000.00,030.1,029.2,000.0,038.6,031.8,023.1,0000.0,0009.08,0003.25,0002.44
2024-05-31 12:26:00,SystemResetWarning,0833.0,4.99,000.00,030.1,029.2,000.0,038.6,031.8,023.1,0000.0,0008.60,0003.24,0002.46
2024-05-31 12:27:00,SystemResetWarning,0833.0,5.00,000.00,030.1,029.2,000.0,038.6,031.8,023.1,0000.0,0008.51,0003.21,0002.45
2024-05-31 12:28:00,SystemResetWarning,0833.0,5.01,000.00,030.1,029.2,000.0,038.6,031.8,023.0,0000.0,0008.58,0003.22,0002.46
2024-05-31 12:29:00,SystemResetWarning,0833.3,5.01,000.00,030.0,029.2,000.0,038.6,031.8,022.8,0000.0,0008.70,0003.24,0002.49
2024-05-31 12:30:00,SystemResetWarning,0833.1,5.00,000.00,030.0,029.2,000.0,038.6,031.8,022.7,0000.0,0008.85,0003.28,0002.52
2024-05-31 12:31:00,SystemResetWarning,0833.2,5.00,000.00,030.1,029.2,000.0,038.6,031.8,022.8,0000.0,0008.86,0003.29,0002.54
2024-05-31 12:32:00,SystemResetWarning,0833.2,5.00,000.00,030.0,029.2,000.0,038.6,031.8,022.9,0000.0,0008.85,0003.29,0002.55
2024-05-31 12:33:00,SystemResetWarning,0833.2,5.00,000.00,030.0,029.2,000.0,038.6,031.8,022.9,0000.0,0008.54,0003.28,0002.55
2024-05-31 12:34:00,SystemResetWarning,0833.2,5.00,000.00,030.0,029.2,000.0,038.6,031.8,022.9,0000.0,0008.69,0003.31,0002.56
2024-05-31 12:35:00,SystemResetWarning,0833.2,5.00,000.00,030.0,029.2,000.0,038.6,031.8,022.9,0000.0,0009.94,0003.33,0002.56
2024-05-31 12:36:00,SystemResetWarning,0833.1,5.01,000.00,030.0,029.2,000.0,038.6,031.8,022.9,0000.0,0009.06,0003.33,0002.56
2024-05-31 12:37:00,SystemResetWarning,0833.1,4.99,000.00,030.0,029.2,000.0,038.6,031.8,022.9,0000.0,0009.09,0003.36,0002.55
2024-05-31 12:38:00,SystemResetWarning,0833.1,5.01,000.00,030.0,029.1,000.0,038.6,031.8,022.9,0000.0,0009.27,0003.39,0002.55
2024-05-31 12:39:00,SystemResetWarning,0833.1,4.99,000.00,030.0,029.1,000.0,038.6,031.7,023.0,0000.0,0010.16,0003.39,0002.55
2024-05-31 12:40:00,SystemResetWarning,0833.1,5.00,000.00,030.0,029.1,000.0,038.6,031.8,023.1,0000.0,0010.41,0003.39,0002.54
2024-05-31 12:41:00,SystemResetWarning,0833.1,5.00,000.00,030.0,029.2,000.0,038.5,031.8,023.1,0000.0,0010.62,0003.44,0002.55
2024-05-31 12:42:00,SystemResetWarning,0833.0,5.00,000.00,030.0,029.2,000.0,038.6,031.8,023.2,0000.0,0010.67,0003.47,0002.55
2024-05-31 12:43:00,SystemResetWarning,0833.1,5.00,000.00,030.0,029.2,000.0,038.5,031.8,023.3,0000.0,0010.85,0003.45,0002.54
2024-05-31 12:44:00,SystemResetWarning,0833.1,4.99,000.00,030.0,029.2,000.0,038.5,031.8,023.3,0000.0,0011.00,0003.43,0002.53
2024-05-31 12:45:00,SystemResetWarning,0833.2,5.00,000.00,030.0,029.2,000.0,038.5,031.8,023.3,0000.0,0011.55,0003.40,0002.52
2024-05-31 12:46:00,SystemResetWarning,0833.1,4.99,000.00,030.0,029.1,000.0,038.5,031.8,023.2,0000.0,0010.53,0003.39,0002.52
2024-05-31 12:47:00,SystemResetWarning,0833.1,5.00,000.00,030.0,029.1,000.0,038.5,031.8,023.1,0000.0,0011.62,0003.39,0002.51
2024-05-31 12:48:00,SystemResetWarning,0833.1,4.99,000.00,030.0,029.1,000.0,038.5,031.8,023.1,0000.0,0011.77,0003.35,0002.51
2024-05-31 12:49:00,SystemResetWarning,0833.1,5.00,000.00,030.0,029.1,000.0,038.5,031.8,023.1,0000.0,0012.48,0003.34,0002.51
2024-05-31 12:50:00,SystemResetWarning,0833.2,5.00,000.00,030.0,029.1,000.0,038.5,031.8,023.1,0000.0,0012.03,0003.35,0002.51
2024-05-31 12:51:00,SystemResetWarning,0833.2,5.01,000.00,030.0,029.1,000.0,038.5,031.8,023.0,0000.0,0011.83,0003.35,0002.52
2024-05-31 12:52:00,SystemResetWarning,0833.2,5.01,000.00,030.0,029.1,000.0,038.5,031.8,023.1,0000.0,0012.56,0003.31,0002.51
2024-05-31 12:53:00,SystemResetWarning,0833.2,5.00,000.00,030.0,029.1,000.0,038.5,031.8,023.2,0000.0,0012.48,0003.31,0002.50
2024-05-31 12:54:00,SystemResetWarning,0833.2,5.00,000.00,030.0,029.1,000.0,038.5,031.8,023.2,0000.0,0013.05,0003.31,0002.50
2024-05-31 12:55:00,SystemResetWarning,0833.2,5.00,000.00,030.0,029.1,000.0,038.5,031.8,023.2,0000.0,0012.88,0003.32,0002.51
2024-05-31 12:56:00,SystemResetWarning,0833.2,5.00,000.00,030.0,029.1,000.0,038.5,031.7,023.2,0000.0,0012.11,0003.32,0002.50
2024-05-31 12:57:00,SystemResetWarning,0833.3,5.00,000.00,030.0,029.1,000.0,038.5,031.7,023.1,0000.0,0011.48,0003.29,0002.48
2024-05-31 12:58:00,SystemResetWarning,0833.3,5.00,000.00,030.0,029.1,000.0,038.5,031.8,023.2,0000.0,0010.76,0003.30,0002.47
2024-05-31 12:59:00,SystemResetWarning,0833.4,5.00,000.00,030.0,029.1,000.0,038.5,031.7,023.2,0000.0,0010.81,0003.34,0002.47
